Regional Weather Roundup
Issued by NWS

Home | Current Version | Previous Version | Text Only | Print | Product List | Glossary Off
Versions: 1 2 3 4 5 6 7 8 9 10 11 12 13 14 15 16 17 18 19 20 21 22 23 24 25 26 27 28 29 30 31 32 33 34 35 36 37 38 39 40 41 42 43 44 45 46 47 48 49 50

000
ASUS43 KMKX 111700
RWRWI

WISCONSIN REGIONAL WEATHER ROUNDUP
NATIONAL WEATHER SERVICE MILWAUKEE/SULLIVAN WI
1200 PM CDT FRI JUL 11 2014

NOTE: "FAIR" INDICATES FEW OR NO CLOUDS BELOW 12,000 FEET WITH NO
SIGNIFICANT WEATHER AND/OR OBSTRUCTIONS TO VISIBILITY.

WIZ001-002-006>008-014>016-023>028-111800-
NORTHWEST WISCONSIN

CITY           SKY/WX    TMP DP  RH WIND       PRES   REMARKS
SUPERIOR ARPT  CLOUDY    59  58  96 CALM      29.93S
ASHLAND        CLOUDY    73  64  73 S13G25    29.96F
HAYWARD        CLOUDY    70  64  81 S17G30    29.99F
SIREN          CLOUDY    71  64  78 SW14      29.97S
RICE LAKE      CLOUDY    68  62  78 S14G21    30.03F
LADYSMITH      CLOUDY    67  60  77 S14G20    30.07F
EAU CLAIRE     NOT AVBL
MENOMONIE      CLOUDY    69  62  79 S10       30.03F
NEW RICHMOND   PTSUNNY   70  63  79 S20G25    29.99F
OSCEOLA        CLOUDY    69  64  84 S14G22    30.01R
$$

WIZ003>005-009-010-017-018-111800-
NORTH CENTRAL WISCONSIN

CITY           SKY/WX    TMP DP  RH WIND       PRES   REMARKS
WOODRUFF       CLOUDY    72  62  71 SW16G24   30.06F
RHINELANDER    CLOUDY    70  58  65 SW15G24   30.10S
EAGLE RIVER    CLOUDY    68  57  68 S7        30.08S
LAND O LAKES   LGT RAIN  67  59  75 S8        30.08F
PHILLIPS       CLOUDY    70  61  73 S18G25    30.05F
TOMAHAWK       CLOUDY    70  59  69 S3        30.10F
MEDFORD        CLOUDY    69  59  72 S17G24    30.11S
MERRILL        CLOUDY    70  59  69 SW12G18   30.11S
$$

WIZ029-030-035-036-043>047-111800-
CENTRAL WISCONSIN

CITY           SKY/WX    TMP DP  RH WIND       PRES   REMARKS
WAUSAU         CLOUDY    71  58  63 SW17G24   30.11R
MOSINEE        PTSUNNY   70  61  73 SW16      30.14R
MARSHFIELD     CLOUDY    72  59  63 S14G22    30.11F
STEVENS POINT  LGT RAIN  71  58  63 S12G23    30.14R
WAUPACA        CLOUDY    76  59  55 S14G20    30.14S
WAUTOMA        NOT AVBL
WISC RAPIDS    CLOUDY    74  58  57 SW20G30   30.14F
CAMP DOUGLAS   NOT AVBL
$$

WIZ011>013-019>022-031-037>040-048>050-111800-
NORTHEAST WISCONSIN

CITY           SKY/WX    TMP DP  RH WIND       PRES   REMARKS
ANTIGO         CLOUDY    68  59  73 SW12      30.14R
STURGEON BAY   MOSUNNY   73  61  64 S8        30.14S
GREEN BAY      PTSUNNY   77  60  55 S12       30.13S
MANITOWOC      NOT AVBL
APPLETON       PTSUNNY   79  55  44 SW16G22   30.15S
CLINTONVILLE   CLOUDY    77  59  53 SW12      30.12S
OSHKOSH        PTSUNNY   77  59  53 S17G25    30.15R
$$

WIZ032>034-041-042-053>061-111800-
SOUTHWEST WISCONSIN

CITY           SKY/WX    TMP DP  RH WIND       PRES   REMARKS
LA CROSSE      RAIN      67  62  84 SE8       30.11F
SPARTA         CLOUDY    68  57  68 S8        30.15S
VIROQUA        PTSUNNY   65  60  83 S7        30.16F
BOSCOBEL       LGT RAIN  70  60  70 CALM      30.16S
PRAIRIE DU CHI CLOUDY    70  56  61 SE3       30.14S
PLATTEVILLE    FAIR      69  61  74 SE8       30.18F
$$

WIZ056-057-062-063-064-067-068-111800-
SOUTH CENTRAL WISCONSIN

CITY           SKY/WX    TMP DP  RH WIND       PRES   REMARKS
BARABOO/DELLS  DRIZZLE   70  59  68 S5        30.18S
LONE ROCK      NOT AVBL
WATERTOWN      PTSUNNY   76  57  52 SW10      30.19R
MADISON        CLOUDY    76  55  48 S12G22    30.19R
MIDDLETON      FAIR      74  56  52 SW12      30.20R
MONROE         DRIZZLE   70  57  64 S8        30.21R
JANESVILLE     NOT AVBL
$$

WIZ051-052-058>065-066-070>072-111800-
SOUTHEAST WISCONSIN

CITY           SKY/WX    TMP DP  RH WIND       PRES   REMARKS
MILWAUKEE      PTSUNNY   76  59  55 E10       30.19R
WAUKESHA       PTSUNNY   75  55  50 S9        30.20R
MILWAUKEE/TIMM SUNNY     79  52  38 S9G16     30.20R
RACINE         SUNNY     75  56  51 S10       30.21R
BURLINGTON     SUNNY     76  58  53 S7        30.19S
KENOSHA        MOSUNNY   78  58  49 S13G18    30.19S
FOND DU LAC    PTSUNNY   77  59  53 SW10      30.17R
SHEBOYGAN      MOSUNNY   78  58  49 S12       30.17R
WEST BEND      PTSUNNY   77  54  44 S9        30.18R
JUNEAU         PTSUNNY   75  40  28 S13       30.20R
$$

LSZ147-162-111800-
LAKE SUPERIOR

STATION/POSITION TIME  TEMP    WIND        PRES    WAVE
                       AIR SEA DIR/SP/G            HT/PER
                 (UTC) (F)     (DEG/KT/KT) (MB)    (FT/S)
W MID LAKE BUOY  1550   47 38  180/  6/  8 1015.1R   1/ 4
PORT WING        1600   70     190/ 15/ 26 1013.5S
SAXON HARBOR     1626          190/ 11/ 26 1014.2F
$$

LMZ867-665-643>646-111800-
LAKE MICHIGAN

STATION/POSITION TIME  TEMP    WIND        PRES    WAVE
                       AIR SEA DIR/SP/G            HT/PER
                 (UTC) (F)     (DEG/KT/KT) (MB)    (FT/S)
N MID LAKE BUOY  1550   58 54  190/ 16/ 17 1020.2F   3/ 4
NORTHPORT PIER   1600   65     140/  9/ 12 1020.0F
KEWAUNEE LAKESHO 1600   54     180/ 13/ 14 1021.6F
SHEBOYGAN LAKESH 1600   58     160/ 13/ 13 1021.8R
PORT WASHINGTON  1600   69     190/  8/ 10 1022.4S
MILWAUKEE LAKESH 1600   62     140/ 12/ 14   N/A
S MID LAKE BUOY  1550   62 59  170/  6/  8 1023.2R   0
KENOSHA   LAKESH 1600   64     160/  8/ 11   N/A
$$

TC  - TEMPERATURE IN CELSIUS
VSB - VISIBILITY IN STATUTE MILES
WCI - WIND CHILL INDEX
HX  - HEAT INDEX




USA.gov is the U.S. government's official web portal to all federal, state and local government web resources and services.